Wind_Speed
18 18 18 17 16 16 15 14 13 12 11 10 9 9 8 6 5 4 2 2 2 3 3 3 3 3 3 4 4 5 5 5 5 6 6 7 7 8 9 9 9 9 10
17 17 17 16 16 15 14 13 13 12 11 10 10 9 8 7 6 4 3 2 2 2 2 2 2 3 3 4 4 5 5 6 7 7 7 8 8 9 10 10 11 11 11
16 16 16 15 15 15 14 14 13 11 10 10 10 10 8 6 6 5 4 3 2 1 1 2 2 3 3 3 4 5 6 7 7 7 7 8 8 9 10 10 11 12 12
14 15 15 14 14 14 14 14 12 11 10 10 10 10 8 6 5 5 4 3 2 1 0 2 2 3 3 3 4 5 6 7 7 7 8 8 8 9 10 11 11 11 12
13 14 14 13 12 12 13 13 12 11 10 9 9 9 8 7 6 5 4 4 3 2 2 2 3 3 4 4 5 6 7 7 7 8 8 8 9 9 10 11 12 12 12
12 12 13 12 11 11 12 12 12 11 11 9 9 8 7 7 5 5 4 3 4 3 3 3 3 4 5 5 5 6 7 8 9 9 9 9 10 10 10 11 12 12 13
11 11 11 10 10 10 10 11 11 11 10 9 8 8 7 6 5 5 5 4 4 4 5 4 4 5 5 6 6 7 8 9 9 9 10 10 10 11 12 12 12 13 14
10 10 9 9 9 9 9 10 10 10 10 10 9 8 7 6 6 6 5 5 5 5 6 6 6 6 7 7 8 9 9 10 10 10 11 11 12 12 12 13 13 14 14
11 10 9 9 9 9 9 10 10 10 10 10 9 8 8 7 7 6 6 6 6 6 6 7 7 7 7 8 8 9 10 10 10 10 11 12 13 13 13 13 13 14 14
11 10 10 10 9 9 9 9 9 10 10 9 8 8 8 8 7 7 7 7 7 8 8 7 8 8 8 9 9 10 10 10 10 10 10 11 12 13 13 13 13 14 14
11 12 12 11 11 10 9 9 9 10 10 9 9 8 8 8 8 8 9 8 8 8 8 8 8 8 9 10 10 10 10 11 11 11 12 11 12 12 13 13 13 13 14
14 13 12 12 12 11 11 11 9 9 9 9 9 9 8 9 9 9 9 9 9 8 9 9 9 9 10 11 12 12 11 11 11 12 12 13 13 13 13 14 15 15 15
15 15 14 13 13 12 12 12 11 10 10 9 10 9 9 9 10 10 10 10 10 10 10 10 10 11 11 12 12 11 11 11 11 12 12 13 14 14 14 15 15 16 16
17 16 15 15 14 14 14 14 12 11 11 10 10 11 10 11 11 11 12 12 12 11 11 11 12 12 12 12 12 12 11 11 12 13 14 14 15 15 15 16 16 17 18
21 20 18 17 16 16 16 16 15 14 13 12 12 12 12 13 13 14 14 15 14 13 13 13 13 12 13 13 13 13 13 13 13 14 15 16 16 17 17 17 18 19 19
23 23 22 21 19 18 18 17 17 15 15 14 14 14 14 15 16 16 16 16 16 15 15 15 15 15 15 15 14 14 14 15 16 16 16 17 17 18 18 19 20 20 20
25 25 25 24 23 22 21 20 18 18 17 17 17 16 17 17 18 18 18 19 18 17 17 17 17 17 17 17 17 17 17 18 18 17 17 18 19 19 19 19 20 20 20
29 29 29 29 27 25 24 23 21 20 20 19 19 19 20 20 20 21 20 21 20 20 20 19 19 19 19 19 19 20 20 21 21 21 20 20 20 20 21 21 21 21 22
32 32 32 31 30 28 26 25 23 22 22 21 21 21 22 22 23 23 22 22 22 22 21 20 20 21 21 22 21 21 22 23 24 23 23 23 22 22 23 23 23 23 24
34 33 33 32 31 29 26 25 26 26 25 23 23 23 23 24 24 24 24 24 23 23 23 22 22 22 23 23 23 24 24 25 24 25 25 24 24 24 24 25 25 25 25
36 35 32 31 30 29 28 27 27 27 27 26 26 26 26 26 25 26 26 25 25 25 24 24 24 25 25 25 26 27 27 27 27 27 26 26 26 26 26 26 26 27 28
37 37 35 33 32 31 30 29 30 29 29 29 29 28 28 28 28 28 28 29 29 29 28 28 28 27 27 28 28 29 29 29 29 28 28 28 28 28 28 28 28 28 29
38 38 37 35 34 33 32 33 33 31 31 32 30 30 30 30 30 31 31 32 32 32 32 29 29 29 29 29 30 30 31 31 30 30 30 30 31 31 30 30 30 30 30
39 37 37 36 35 35 35 34 33 32 33 34 32 32 32 33 33 33 33 33 33 33 33 32 32 31 31 31 31 32 32 32 32 32 32 32 32 33 32 32 31 31 31
37 37 37 37 36 35 36 36 36 35 35 35 35 35 35 35 35 35 35 35 34 35 34 33 33 32 33 33 33 34 34 34 34 34 34 34 35 35 34 34 33 33 33
38 38 38 38 39 39 38 38 37 38 37 37 38 38 38 37 38 37 36 35 35 35 34 33 34 34 34 35 35 35 35 35 36 36 36 36 36 36 36 36 35 35 35
Wind_Direction
21 22 21 21 24 26 26 27 27 30 33 33 34 36 42 46 49 47 56 115 155 169 170 180 190 199 210 222 228 232 233 241 250 256 258 258 261 259 260 261 262 262 264
16 17 17 18 21 21 22 25 25 27 30 32 31 32 39 43 49 52 60 92 123 150 172 193 199 214 228 237 237 236 244 252 258 261 262 262 262 262 262 262 263 266 264
11 13 13 13 16 19 20 22 23 25 27 27 26 24 28 31 44 50 61 69 89 134 178 208 228 232 239 246 245 246 251 257 262 268 270 265 265 266 265 264 264 268 268
3 6 8 8 12 16 19 20 21 23 24 25 24 23 25 28 36 44 49 45 30 12 240 229 235 238 252 263 259 256 259 263 266 269 268 268 267 266 272 273 272 271 269
354 357 1 2 6 12 15 17 19 20 22 23 22 20 23 27 26 30 28 23 8 345 304 278 266 261 265 270 264 261 263 266 269 270 272 272 270 268 271 275 277 274 273
344 346 352 355 360 6 10 13 16 17 18 19 20 19 20 23 22 18 11 8 5 359 335 303 287 283 279 273 270 268 270 270 269 271 274 277 274 274 274 275 277 277 276
333 337 344 349 354 1 6 9 11 12 12 13 15 16 16 16 15 6 357 351 348 352 343 330 301 293 289 278 274 275 275 275 274 275 277 278 277 277 276 276 276 277 277
322 326 335 340 345 352 358 1 4 7 8 8 9 11 9 5 3 359 348 342 343 340 340 337 325 302 291 285 280 278 274 275 274 276 278 280 281 280 278 277 277 277 276
315 319 324 328 332 341 348 353 358 360 1 3 4 4 4 1 351 347 349 349 343 338 333 330 325 315 305 295 289 286 281 278 276 276 278 279 280 280 278 277 278 277 275
312 315 319 322 322 329 338 346 351 353 355 356 0 1 0 358 352 348 344 342 338 337 331 326 325 322 314 302 296 292 285 284 282 281 284 284 283 280 280 279 279 277 276
300 307 310 312 312 314 319 325 334 342 347 349 350 349 348 349 344 340 340 344 342 344 345 336 327 321 320 318 309 301 293 288 288 287 286 289 291 287 283 282 283 282 279
294 298 300 302 302 304 310 312 321 334 340 343 345 345 344 343 343 338 340 340 339 338 338 333 328 323 323 321 318 307 298 295 294 294 291 290 291 291 289 286 284 283 280
287 290 292 295 294 294 302 305 309 316 324 328 330 331 332 336 338 336 335 332 329 326 323 323 323 321 320 320 320 314 302 297 296 296 296 296 295 293 289 287 286 286 282
287 286 289 292 291 290 296 302 303 305 311 317 320 323 326 328 329 329 328 326 322 319 315 314 315 314 315 316 315 312 304 298 298 298 298 299 298 298 294 289 288 287 284
286 287 286 288 290 292 292 293 297 298 303 308 311 313 316 318 319 320 321 320 317 314 310 308 311 311 313 314 313 312 306 299 297 297 298 297 296 295 295 291 289 288 285
283 284 284 283 283 285 286 287 287 289 294 299 302 303 306 309 312 314 316 316 313 310 308 305 305 305 307 308 309 308 306 303 299 297 296 296 295 295 294 293 292 289 286
277 281 282 281 280 278 283 280 280 281 284 287 291 295 298 302 303 306 309 309 306 304 304 301 301 303 305 305 304 304 304 304 301 297 295 295 295 294 294 294 292 291 289
273 278 279 278 276 275 279 277 275 275 277 281 285 289 292 295 297 298 300 302 301 298 298 297 296 297 299 302 301 300 301 302 301 298 297 295 295 294 293 293 292 292 290
270 275 276 276 274 274 277 277 275 275 276 276 278 283 287 289 292 295 296 297 296 296 294 294 294 294 295 297 298 298 299 301 301 299 299 295 293 294 293 292 292 291 292
269 271 273 273 275 275 275 276 276 276 279 279 278 281 283 284 287 292 294 293 294 295 291 291 293 293 295 296 296 296 297 298 300 299 300 297 294 295 295 294 293 292 291
268 271 271 272 273 274 272 273 274 276 279 281 282 281 281 282 283 288 288 291 295 295 292 290 291 292 293 294 295 295 295 296 297 297 297 297 297 297 298 296 295 294 293
268 270 271 271 271 272 270 270 270 272 276 277 278 279 279 281 283 285 288 292 293 294 293 293 291 289 291 291 293 294 294 295 295 295 294 295 296 297 296 296 296 295 293
265 266 268 270 269 268 268 268 268 270 273 275 275 277 278 280 281 283 287 289 290 291 292 290 292 290 290 292 292 293 293 295 295 294 294 294 294 295 296 296 295 295 294
264 265 266 268 266 267 267 270 269 271 273 276 278 277 278 279 281 283 285 286 287 289 289 288 292 292 290 291 293 293 292 293 294 294 293 295 295 295 295 295 294 294 294
261 264 265 265 266 267 268 269 271 272 275 277 277 277 278 279 281 283 284 286 287 287 288 290 291 293 291 289 289 290 291 292 293 294 294 294 294 295 294 293 293 293 292
261 263 264 266 267 268 269 270 272 271 273 274 275 276 276 279 280 282 284 284 285 286 288 289 290 291 291 290 289 289 290 291 292 293 293 293 293 292 292 292 292 292 290
Height
5927 5924 5921 5919 5916 5914 5912 5909 5907 5905 5903 5902 5901 5900 5898 5897 5896 5895 5894 5894 5894 5894 5895 5895 5895 5895 5895 5896 5896 5896 5896 5896 5896 5896 5896 5895 5895 5895 5895 5894 5894 5894 5893
5928 5925 5923 5920 5917 5915 5913 5910 5908 5906 5904 5903 5902 5900 5899 5898 5896 5895 5895 5894 5894 5894 5894 5894 5894 5894 5894 5894 5894 5895 5895 5895 5894 5894 5894 5894 5894 5893 5892 5892 5891 5891 5890
5928 5926 5924 5921 5918 5916 5914 5911 5909 5907 5905 5904 5902 5901 5899 5898 5897 5896 5895 5895 5894 5894 5894 5894 5894 5893 5893 5893 5893 5893 5893 5893 5893 5892 5892 5892 5891 5891 5890 5890 5889 5888 5887
5928 5926 5924 5922 5919 5917 5915 5912 5910 5908 5906 5904 5902 5901 5899 5898 5897 5896 5895 5895 5894 5894 5893 5893 5893 5892 5892 5892 5891 5891 5891 5891 5890 5890 5890 5890 5889 5889 5888 5887 5887 5886 5885
5928 5926 5925 5922 5920 5918 5915 5913 5911 5909 5907 5905 5903 5901 5899 5898 5897 5896 5895 5895 5894 5893 5892 5892 5892 5891 5891 5890 5890 5890 5889 5889 5888 5888 5887 5887 5886 5886 5885 5885 5884 5883 5882
5928 5926 5924 5922 5920 5918 5916 5914 5911 5909 5907 5905 5903 5901 5899 5898 5897 5896 5895 5894 5893 5892 5891 5891 5890 5890 5889 5889 5888 5888 5887 5887 5886 5886 5885 5884 5883 5883 5882 5881 5880 5880 5879
5927 5925 5924 5922 5920 5918 5916 5914 5912 5909 5907 5905 5903 5901 5899 5898 5896 5895 5894 5893 5892 5891 5890 5889 5889 5888 5887 5887 5886 5885 5885 5884 5884 5883 5882 5881 5880 5880 5879 5878 5877 5876 5875
5926 5924 5923 5921 5919 5917 5916 5914 5912 5909 5907 5905 5903 5902 5900 5898 5896 5895 5893 5892 5891 5890 5889 5888 5887 5886 5885 5884 5883 5883 5882 5881 5881 5880 5879 5878 5877 5876 5875 5875 5874 5872 5871
5924 5923 5922 5920 5918 5917 5915 5913 5911 5909 5907 5905 5903 5901 5899 5897 5896 5894 5893 5891 5890 5889 5887 5886 5885 5884 5883 5882 5881 5880 5879 5878 5877 5876 5876 5875 5874 5873 5872 5871 5870 5869 5868
5921 5921 5920 5918 5917 5915 5914 5912 5911 5909 5907 5904 5902 5901 5899 5897 5895 5893 5892 5890 5889 5887 5886 5884 5883 5882 5881 5880 5878 5877 5876 5875 5874 5873 5872 5871 5870 5868 5868 5866 5865 5864 5864
5919 5918 5917 5916 5915 5914 5912 5911 5909 5908 5906 5904 5902 5900 5898 5896 5894 5892 5891 5889 5887 5886 5884 5883 5882 5880 5879 5877 5876 5874 5873 5872 5871 5870 5869 5868 5866 5865 5864 5863 5861 5860 5859
5916 5915 5914 5914 5913 5911 5910 5908 5907 5906 5904 5902 5900 5898 5896 5895 5893 5891 5889 5887 5886 5884 5882 5881 5879 5878 5877 5875 5873 5871 5870 5868 5867 5866 5865 5864 5863 5861 5860 5859 5857 5856 5855
5912 5912 5911 5911 5910 5909 5907 5906 5905 5904 5902 5900 5899 5897 5895 5893 5891 5889 5887 5885 5883 5882 5880 5879 5877 5876 5874 5872 5870 5867 5866 5865 5864 5863 5862 5860 5859 5857 5856 5854 5853 5851 5850
5908 5908 5908 5907 5907 5906 5905 5903 5902 5901 5900 5898 5896 5894 5893 5891 5888 5887 5885 5883 5881 5879 5878 5876 5874 5873 5871 5869 5867 5864 5863 5862 5860 5859 5858 5856 5855 5853 5852 5850 5848 5847 5845
5903 5904 5903 5903 5903 5903 5902 5900 5899 5898 5896 5895 5893 5891 5890 5888 5886 5884 5882 5880 5878 5876 5875 5873 5871 5869 5868 5866 5864 5861 5859 5858 5856 5855 5853 5852 5850 5849 5847 5845 5843 5841 5840
5898 5898 5897 5897 5897 5897 5897 5896 5895 5894 5893 5891 5889 5888 5886 5884 5882 5880 5878 5876 5874 5872 5871 5869 5867 5866 5864 5862 5860 5858 5856 5854 5852 5850 5849 5847 5846 5844 5842 5840 5838 5836 5835
5892 5892 5892 5891 5891 5891 5891 5890 5890 5889 5888 5887 5885 5883 5882 5880 5878 5876 5874 5872 5870 5868 5866 5864 5863 5861 5860 5858 5856 5854 5852 5850 5848 5845 5843 5842 5840 5838 5836 5834 5833 5831 5829
5886 5886 5886 5885 5884 5884 5884 5883 5883 5883 5883 5882 5880 5879 5877 5875 5873 5871 5869 5867 5865 5863 5861 5859 5858 5856 5854 5853 5851 5849 5847 5845 5843 5841 5839 5837 5834 5832 5830 5829 5827 5825 5823
5879 5879 5878 5878 5877 5877 5876 5876 5875 5876 5875 5874 5873 5872 5871 5869 5867 5865 5863 5861 5860 5858 5856 5854 5852 5850 5849 5847 5845 5844 5842 5839 5837 5834 5833 5830 5828 5826 5824 5822 5820 5818 5816
5872 5871 5870 5870 5869 5869 5870 5870 5869 5868 5867 5866 5866 5865 5863 5861 5859 5859 5857 5855 5854 5852 5850 5848 5846 5844 5843 5841 5840 5838 5835 5833 5830 5828 5826 5823 5821 5819 5817 5815 5813 5811 5809
5863 5863 5861 5861 5861 5862 5862 5862 5862 5861 5860 5859 5859 5857 5856 5853 5852 5852 5849 5848 5847 5846 5843 5841 5840 5838 5836 5834 5833 5831 5829 5826 5824 5822 5819 5817 5814 5812 5810 5808 5806 5803 5801
5853 5853 5853 5853 5853 5854 5853 5853 5853 5852 5852 5851 5850 5849 5848 5847 5846 5845 5843 5841 5840 5838 5836 5834 5833 5831 5829 5826 5824 5823 5821 5819 5817 5814 5812 5809 5807 5805 5802 5800 5798 5795 5793
5844 5844 5844 5845 5845 5845 5844 5844 5843 5841 5843 5842 5841 5841 5840 5839 5838 5837 5835 5834 5832 5830 5828 5826 5825 5823 5821 5819 5816 5814 5812 5810 5808 5806 5803 5801 5799 5796 5794 5792 5789 5786 5784
5834 5834 5834 5834 5835 5836 5836 5835 5832 5831 5833 5833 5832 5832 5831 5830 5829 5828 5827 5825 5823 5821 5819 5818 5816 5814 5812 5810 5808 5805 5803 5801 5799 5797 5795 5792 5790 5787 5785 5782 5780 5777 5775
5822 5822 5823 5823 5824 5825 5825 5825 5824 5824 5824 5823 5823 5822 5821 5820 5819 5818 5817 5815 5814 5812 5811 5809 5807 5806 5804 5801 5799 5797 5795 5792 5790 5788 5785 5783 5780 5778 5775 5773 5770 5767 5765
5811 5812 5813 5813 5813 5814 5814 5813 5812 5812 5813 5813 5813 5812 5811 5809 5808 5807 5806 5805 5804 5802 5800 5799 5798 5796 5794 5792 5789 5787 5785 5783 5780 5778 5775 5773 5770 5767 5764 5762 5759 5757 5754